Regional Weather Roundup
Issued by NWS Sterling, VA

Home | Current Version | Previous Version | Text Only | Print | Product List | Glossary Off
Versions: 1 2 3 4 5 6 7 8 9 10 11 12 13 14 15 16 17 18 19 20 21 22 23 24 25 26 27 28 29 30 31 32 33 34 35 36 37 38 39 40 41 42 43 44 45 46 47 48 49 50

000
ASUS41 KLWX 301610
RWRLWX

REGIONAL WEATHER ROUNDUP
NATIONAL WEATHER SERVICE BALTIMORE MD/WASHINGTON DC
1200 PM EDT TUE JUN 30 2015

Note: "FAIR" indicates few or no clouds below 12,000 feet
with no significant weather and/or obstructions to visibility.
 TC=TEMPERATURE CELSIUS

 * =Non NWS site. Station does not report precipitation (e.g. rain,
    snow, etc.), thunder, or fog.

DCZ001-MDZ009-015-VAZ040>042-051-053>054-301700-
WASHINGTON METRO

CITY           SKY/WX    TMP DP  RH WIND       PRES   REMARKS
WASHINGTON NAT MOSUNNY   82  73  74 S8        29.90F
DULLES         MOSUNNY   79  68  69 S8        29.90S
ANDREWS AFB    PTSUNNY   81  73  75 S14       29.89S
FT BELVOIR     SUNNY     81  70  68 S8        29.90S
QUANTICO       PTSUNNY   80  71  74 S9        29.90F
COLLEGE PARK*  MOSUNNY   81  70  69 S7        29.89F
LEESBURG*      MOSUNNY   81  70  69 S10       29.90F
MANASSAS*      SUNNY     81  70  69 S9          N/A
GAITHERSBURG*  MOSUNNY   79  70  73 S6        29.94F

$$

MDZ006>007-011-014-301700-
BALTIMORE METRO

CITY           SKY/WX    TMP DP  RH WIND       PRES   REMARKS
BWI AIRPORT    PTSUNNY   80  70  71 SW8       29.89S
MD SCIENCE CTR   N/A     81  72  74 MISG      29.91S
MARTIN STATE   PTSUNNY   79  75  89 SE9       29.91F
ANNAPOLIS      PTSUNNY   79  72  79 S15G26    29.89F
FORT MEADE*    PTSUNNY   77  70  78 SW7       29.92S

$$

MDZ012-015-019>023-301700-
MARYLAND EASTERN SHORE

CITY           SKY/WX    TMP DP  RH WIND       PRES   REMARKS
OCEAN CITY     NOT AVBL
SALISBURY      SUNNY     84  67  56 S17       29.93F
BAY BRIDGE AP*   N/A     81  70  69 SE14      29.89F
CAMBRIDGE*     MOSUNNY   84  68  58 S13G22    29.91F
EASTON*        PTSUNNY   86  72  62 S17G24    29.94F HX  92

$$

MDZ017>025-301700-
SOUTHERN MARYLAND

CITY           SKY/WX    TMP DP  RH WIND       PRES   REMARKS
PATUXENT RIVER MOSUNNY   81  74  79 SE15G25   29.90F
ST INIGOES     SUNNY     83  72  69 SE13G21   29.90S
LEONARDTOWN*   MOSUNNY   82  68  61 S10G17    29.92F

$$

MDZ003>005-301700-
NORTH CENTRAL MARYLAND

CITY           SKY/WX    TMP DP  RH WIND       PRES   REMARKS
FREDERICK*     PTSUNNY   81  72  74 CALM      29.92F
HAGERSTOWN APT MOSUNNY   80  65  59 SW7       29.89S
WESTMINSTER*   MOSUNNY   81  70  69 S10       29.91F

$$

MDZ501>502-301700-
WESTERN MARYLAND

CITY           SKY/WX    TMP DP  RH WIND       PRES   REMARKS
OAKLAND*       PTSUNNY   68 N/A N/A SW9G18    29.97F
CUMBERLAND*    PTSUNNY   79  64  61 S8        29.92F

$$

VAZ025>031-301700-
SHENANDOAH VALLEY

CITY           SKY/WX    TMP DP  RH WIND       PRES   REMARKS
WINCHESTER*    MOSUNNY   82  64  54 SW5       29.90S
FRONT ROYAL*   PTSUNNY   81  64  57 S7        29.89S
LURAY*         FAIR      82  66  57 S8        29.91S
NEW MARKET*    FAIR      81  66  58 S9        29.88F
STAUNTON*      MOSUNNY   81  64  56 S5        29.94F
WAYNESBORO*    FAIR      75  64  69 S7        29.95S

$$

WVZ021-048>050-054>055-301700-
EASTERN WEST VIRGINIA PANHANDLE

CITY           SKY/WX    TMP DP  RH WIND       PRES   REMARKS
MARTINSBURG    MOSUNNY   81  64  56 S9        29.89S HAZE
PETERSBURG*    PTSUNNY   79  55  43 NW6       29.90F

$$

VAZ036>039-050-301700-
CENTRAL FOOTHILLS

CITY           SKY/WX    TMP DP  RH WIND       PRES   REMARKS
CHARLOTTESVILL PTSUNNY   77  66  68 S8        29.92R
CULPEPER*      MOSUNNY   78  67  70 SW5       29.91S
ORANGE*        MOSUNNY   81  68  65 S7        29.92F
GORDONSVILLE*  FAIR      79  66  65 SW8       29.90F
WARRENTON*     FAIR      81  71  71 SW5       29.89F

$$

VAZ055>057-301700-
NORTH AND CENTRAL PIEDMONT

CITY           SKY/WX    TMP DP  RH WIND       PRES   REMARKS
FREDERICKSBRG* MOSUNNY   86  68  54 SW12      29.90R
STAFFORD*      MOSUNNY   81  66  59 SW10      29.94F

$$

NCZ024-NYZ072-PAZ021-071-VAZ022-071-301700-
OTHER REGIONAL OBSERVATIONS

CITY           SKY/WX    TMP DP  RH WIND       PRES   REMARKS
NEW YORK CITY  SUNNY     79  56  45 S9G24     29.98F
PHILADELPHIA   PTSUNNY   82  64  54 S14       29.92F
PITTSBURGH     CLOUDY    71  63  75 SW12      29.87S
ROANOKE        CLOUDY    76  64  66 SW9       29.97S
RICHMOND       MOSUNNY   86  67  52 S12       29.91F
RALEIGH        MOSUNNY   86  67  52 SW9       29.95F

$$

ANZ530>537-301700-
MARINE OBSERVATIONS

STATION/POSITION TIME  TEMP    WIND        PRES
                       AIR SEA DIR/SP/G
                 (UTC) (F)     (DEG/KT/KT) (MB)
THOMAS PT LIGHT  NOT AVBL
BALT KEY BRIDGE  1500   77     140/ 17/ 18 1011.9F
COVE POINT       1500   77     180/ 20/ 24 1013.4F
LEWISETTA        1500   82 80  180/ 11/ 14 1012.6F
SOLOMONS ISLAND  1500      79                N/A
PINEY POINT      1500          170/ 11/ 12   N/A

$$




USA.gov is the U.S. government's official web portal to all federal, state and local government web resources and services.